Regional Weather Roundup
Issued by NWS Midland/Odessa, TX

Skip options and go directly to product.
Home | Oldest Version | Previous Version | Current Version | All | Text Only | Save Text | Print | Product List | Glossary On

Skip product version selection by date and time.   
082
ASUS44 KMAF 301510
RWRMAF
MIDLAND AREA WEATHER ROUNDUP
NATIONAL WEATHER SERVICE MIDLAND TX
1000 AM CDT THU OCT 30 2014

...IN SOUTHWEST TEXAS AND SOUTHEAST NEW MEXICO...

CITY           SKY/WX    TMP DP  RH WIND       PRES   REMARKS
ALPINE         SUNNY     67  55  64 SW6       30.29R
ANDREWS        FAIR      63  56  79 SW6       30.16R
ARTESIA        NOT AVBL
BIG SPRING     SUNNY     64  59  85 S12       30.17R
CARLSBAD       SUNNY     59  44  57 NW10      30.19R
DRYDEN           N/A     65  62  90 SE5       30.15R
FORT STOCKTON  SUNNY     66  55  67 SW7       30.17R
GUAD PASS      SUNNY     57  44  62 SW9       30.30R
HOBBS          SUNNY     64  55  72 W12       30.19R
MARFA          SUNNY     61  54  77 CALM      30.28R
MIDLAND AIRPK  SUNNY     64  58  79 CALM      30.16R
MIDLAND INTL   SUNNY     65  59  81 SW8       30.15R
ODESSA         SUNNY     65  58  78 SW9       30.16R
PECOS          SUNNY     56  51  82 CALM      30.16S
PRESIDIO       FAIR      69  56  62 CALM      30.18R
SEMINOLE       SUNNY     60  53  77 W9        30.18R
SNYDER         SUNNY     61  58  89 S8        30.16R
WINK           SUNNY     60  52  74 CALM      30.14R
$$
...OTHER STATIONS IN TEXAS...

CITY           SKY/WX    TMP DP  RH WIND       PRES   REMARKS
ABILENE        SUNNY     67  58  72 S13       30.14R
AMARILLO       SUNNY     51  43  74 N15       30.23R
AUSTIN         MOSUNNY   65  57  75 E5        30.16R
BROWNSVILLE    SUNNY     80  70  71 CALM      30.10R
CORPUS CHRISTI MOSUNNY   75  72  90 NE7       30.10R
DALLAS FTW     MOSUNNY   64  48  56 S9        30.17R
DEL RIO        SUNNY     70  64  81 E10       30.12R
EL PASO        SUNNY     57  36  45 N10       30.23R
HOUSTON INT    MOSUNNY   66  49  54 E10       30.15R
LUBBOCK        SUNNY     57  48  72 NW12      30.16R
SAN ANGELO     SUNNY     67  60  78 S9        30.14R
SAN ANTONIO    CLOUDY    68  61  78 NE6       30.16R
WACO           CLOUDY    63  51  65 SE5       30.18R
WICHITA FALLS  NOT AVBL
$$
...OTHER LOCATIONS IN NEW MEXICO...

CITY           SKY/WX    TMP DP  RH WIND       PRES   REMARKS
ALAMAGORDO     NOT AVBL
ALBUQUERQUE    SUNNY     50  14  23 N8        30.35R
CANNON AFB     SUNNY     58  37  46 N18       30.23R
CLOVIS         SUNNY     57  39  51 N18       30.26R
HOLLOMAN AFB   MOSUNNY   50  36  59 SE2       30.24R
ROSWELL        SUNNY     55  41  59 N8        30.23R
RUIDOSO        SUNNY     57  30  35 NW8       30.39R
SANTA FE       SUNNY     45  12  26 NE10      30.37R WCI  40
TRUTH OR CONSE MOSUNNY   57  36  45 N3        30.29R
TUCUMCARI      SUNNY     60  26  27 N12       30.27R
$$

USA.gov is the U.S. government's official web portal to all federal, state and local government web resources and services.